Hourly Data Report for October 25, 2016

All times are specified in Local Standard Time (LST). Add 1 hour to adjust for Daylight Saving Time where and when it is observed.

CLYDE RIVER A
NUNAVUT

70°29'09.000" N
68°31'01.000" W
26.50 m
2400804
71090
YCY

Download Data

Hourly Data (October 2016)
Hourly Data Report for October 25, 2016
Temp Definition
°C
Dew Point Temp Definition
°C
Rel Hum Definition
%
Wind Dir Definition
10's deg

Wind Spd Definition
km/h
Visibility Definition
km
Stn Press Definition
kPa
Hmdx Definition


Wind Chill Definition


Weather Definition


TIME
00:00 Legend Double Dagger -7.0 -9.3 84 31 39 16.1 101.35   -17 Snow
01:00 Legend Double Dagger -7.8 -10.5 81 30 34 16.1 101.32   -17 Snow
02:00 Legend Double Dagger -6.8 -9.2 83 30 34 16.1 101.30   -16 Snow
03:00 Legend Double Dagger -6.5 -8.8 84 30 34 16.1 101.30   -15 Snow
04:00 Legend Double Dagger -6.5 -9.1 82 31 35 16.1 101.29   -16 LegendNANA
05:00 Legend Double Dagger -6.6 -8.8 85 31 35 16.1 101.29   -16 Snow
06:00 Legend Double Dagger -7.1 -9.3 85 30 30 16.1 101.30   -16 Snow
07:00 Legend Double Dagger -8.2 -11.2 79 31 30 16.1 101.32   -17 LegendNANA
08:00 Legend Double Dagger -10.3 -13.1 80 29 22 16.1 101.31   -19 LegendNANA
09:00 Legend Double Dagger -10.7 -13.4 81 28 26 16.1 101.28   -20 LegendNANA
10:00 Legend Double Dagger -8.4 -11.9 76 29 21 16.1 101.25   -16 Snow
11:00 Legend Double Dagger -8.2 -12.5 71 28 22 16.1 101.21   -16 LegendNANA
12:00 Legend Double Dagger -9.4 -13.7 71 29 24 16.1 101.21   -18 LegendNANA
13:00 Legend Double Dagger -10.5 -14.3 74 28 24 16.1 101.21   -19 LegendNANA
14:00 Legend Double Dagger -9.7 -14.1 70 28 24 16.1 101.20   -18 LegendNANA
15:00 Legend Double Dagger -10.7 -15.2 70 28 26 16.1 101.19   -20 LegendNANA
16:00 Legend Double Dagger -11.1 -15.7 69 29 26 16.1 101.21   -20 LegendNANA
17:00 Legend Double Dagger -11.1 -16.0 68 28 22 16.1 101.21   -20 LegendNANA
18:00 Legend Double Dagger -10.2 -16.0 63 25 13 16.1 101.20   -16 LegendNANA
19:00 Legend Double Dagger -9.4 -16.0 59 27 8 16.1 101.18   -14 LegendNANA
20:00 Legend Double Dagger -9.6 -16.5 58 28 17 16.1 101.16   -17 LegendNANA
21:00 Legend Double Dagger -10.1 -16.9 58 28 9 16.1 101.13   -15 LegendNANA
22:00 Legend Double Dagger -10.5 -17.3 58 28 9 16.1 101.09   -15 LegendNANA
23:00 Legend Double Dagger -12.0 -17.7 63 26 9 16.1 101.08   -17 LegendNANA

Notes on Data Quality.

Legend

  • E = Estimated
  • M = Missing
  • NA = Not Available
  • ‡ = Partner data that is not subject to review by the National Climate Archives
Date modified: